Time,TemperatureF,DewpointF,PressureIn,WindDirection,WindDirectionDegrees,WindSpeedMPH,WindSpeedGustMPH,Humidity,HourlyPrecipIn,Conditions,Clouds,dailyrainin,SoftwareType,DateUTC
2013-01-19 00:10:00,24.7,13.0,30.33,South,174,14.0,25.0,61,0.00,,,0.00,weatherlink.com 1.10,2013-01-19 05:10:00,
2013-01-19 00:26:00,25.1,13.0,30.33,North,11,9.0,28.0,61,0.00,,,0.00,weatherlink.com 1.10,2013-01-19 05:26:00,
2013-01-19 00:41:00,25.6,14.0,30.33,NW,316,11.0,28.0,63,0.00,,,0.00,weatherlink.com 1.10,2013-01-19 05:41:00,
2013-01-19 00:56:00,25.9,14.0,30.32,West,273,10.0,33.0,61,0.00,,,0.00,weatherlink.com 1.10,2013-01-19 05:56:00,
2013-01-19 01:11:00,26.2,15.0,30.32,NNW,340,13.0,27.0,63,0.00,,,0.00,weatherlink.com 1.10,2013-01-19 06:11:00,
2013-01-19 01:27:00,26.2,15.0,30.32,SSE,163,21.0,29.0,62,0.00,,,0.00,weatherlink.com 1.10,2013-01-19 06:27:00,
2013-01-19 01:41:00,26.5,15.0,30.32,NW,321,15.0,37.0,63,0.00,,,0.00,weatherlink.com 1.10,2013-01-19 06:41:00,
2013-01-19 01:56:00,26.6,15.0,30.32,South,170,17.0,35.0,61,0.00,,,0.00,weatherlink.com 1.10,2013-01-19 06:56:00,
2013-01-19 02:11:00,26.9,17.0,30.31,NW,324,9.0,36.0,65,0.00,,,0.00,weatherlink.com 1.10,2013-01-19 07:11:00,
2013-01-19 02:26:00,26.9,16.0,30.31,SSW,207,28.0,31.0,64,0.00,,,0.00,weatherlink.com 1.10,2013-01-19 07:26:00,
2013-01-19 02:41:00,27.0,17.0,30.31,SSE,167,18.0,31.0,66,0.00,,,0.00,weatherlink.com 1.10,2013-01-19 07:41:00,
2013-01-19 02:56:00,27.2,17.0,30.30,South,184,25.0,29.0,65,0.00,,,0.00,weatherlink.com 1.10,2013-01-19 07:56:00,
2013-01-19 03:11:00,27.3,16.0,30.29,SE,136,25.0,37.0,63,0.00,,,0.00,weatherlink.com 1.10,2013-01-19 08:11:00,
2013-01-19 03:26:00,27.2,14.0,30.27,South,187,19.0,35.0,59,0.00,,,0.00,weatherlink.com 1.10,2013-01-19 08:26:00,
2013-01-19 03:41:00,27.2,15.0,30.27,WSW,252,16.0,37.0,60,0.00,,,0.00,weatherlink.com 1.10,2013-01-19 08:41:00,
2013-01-19 03:56:00,27.3,16.0,30.26,SSW,197,30.0,38.0,63,0.00,,,0.00,weatherlink.com 1.10,2013-01-19 08:56:00,
2013-01-19 04:11:00,27.4,15.0,30.25,SSE,164,25.0,37.0,61,0.00,,,0.00,weatherlink.com 1.10,2013-01-19 09:11:00,
2013-01-19 04:26:00,27.5,16.0,30.25,SSW,205,14.0,33.0,61,0.00,,,0.00,weatherlink.com 1.10,2013-01-19 09:26:00,
2013-01-19 04:41:00,27.7,16.0,30.24,SSW,193,12.0,38.0,62,0.00,,,0.00,weatherlink.com 1.10,2013-01-19 09:41:00,
2013-01-19 04:56:00,27.9,16.0,30.24,NW,307,12.0,36.0,62,0.00,,,0.00,weatherlink.com 1.10,2013-01-19 09:56:00,
2013-01-19 05:11:00,28.0,17.0,30.24,SW,219,26.0,34.0,63,0.00,,,0.00,weatherlink.com 1.10,2013-01-19 10:11:00,
2013-01-19 05:41:00,27.8,17.0,30.23,SSE,166,26.0,32.0,63,0.00,,,0.00,weatherlink.com 1.10,2013-01-19 10:41:00,
2013-01-19 05:56:00,28.0,18.0,30.23,South,181,18.0,35.0,65,0.00,,,0.00,weatherlink.com 1.10,2013-01-19 10:56:00,
2013-01-19 06:11:00,28.0,18.0,30.23,South,176,16.0,36.0,66,0.00,,,0.00,weatherlink.com 1.10,2013-01-19 11:11:00,
2013-01-19 07:57:00,29.2,21.0,30.20,South,177,13.0,40.0,71,0.00,,,0.00,weatherlink.com 1.10,2013-01-19 12:57:00,
2013-01-19 08:12:00,29.6,21.0,30.20,South,191,22.0,38.0,70,0.00,,,0.00,weatherlink.com 1.10,2013-01-19 13:12:00,
2013-01-19 08:27:00,29.8,21.0,30.21,South,173,24.0,30.0,70,0.00,,,0.00,weatherlink.com 1.10,2013-01-19 13:27:00,
2013-01-19 08:42:00,30.0,21.0,30.20,South,184,23.0,33.0,70,0.00,,,0.00,weatherlink.com 1.10,2013-01-19 13:42:00,
2013-01-19 08:57:00,30.3,22.0,30.19,South,178,27.0,36.0,71,0.00,,,0.00,weatherlink.com 1.10,2013-01-19 13:57:00,
2013-01-19 09:12:00,30.7,23.0,30.19,SW,226,23.0,32.0,74,0.00,,,0.00,weatherlink.com 1.10,2013-01-19 14:12:00,
2013-01-19 09:27:00,31.0,23.0,30.19,SSW,194,10.0,34.0,72,0.00,,,0.00,weatherlink.com 1.10,2013-01-19 14:27:00,
2013-01-19 09:42:00,31.4,23.0,30.19,SSW,195,13.0,35.0,72,0.00,,,0.00,weatherlink.com 1.10,2013-01-19 14:42:00,
2013-01-19 09:57:00,31.8,23.0,30.18,SSE,167,12.0,35.0,69,0.00,,,0.00,weatherlink.com 1.10,2013-01-19 14:57:00,
2013-01-19 10:12:00,32.1,23.0,30.18,SSW,200,19.0,32.0,70,0.00,,,0.00,weatherlink.com 1.10,2013-01-19 15:12:00,
2013-01-19 10:27:00,32.4,24.0,30.18,South,177,27.0,30.0,70,0.00,,,0.00,weatherlink.com 1.10,2013-01-19 15:27:00,
2013-01-19 10:42:00,32.9,23.0,30.17,South,172,25.0,35.0,68,0.00,,,0.00,weatherlink.com 1.10,2013-01-19 15:42:00,
2013-01-19 10:57:00,33.7,25.0,30.15,South,177,15.0,31.0,69,0.00,,,0.00,weatherlink.com 1.10,2013-01-19 15:57:00,
2013-01-19 11:12:00,34.3,25.0,30.14,WNW,290,11.0,30.0,69,0.00,,,0.00,weatherlink.com 1.10,2013-01-19 16:12:00,
2013-01-19 11:27:00,34.7,25.0,30.12,North,350,9.0,34.0,67,0.00,,,0.00,weatherlink.com 1.10,2013-01-19 16:27:00,
2013-01-19 11:42:00,35.5,25.0,30.11,South,172,12.0,33.0,67,0.00,,,0.00,weatherlink.com 1.10,2013-01-19 16:42:00,
2013-01-19 11:57:00,36.1,26.0,30.10,ESE,116,14.0,28.0,67,0.00,,,0.00,weatherlink.com 1.10,2013-01-19 16:57:00,
2013-01-19 12:12:00,36.9,26.0,30.09,ENE,69,10.0,29.0,65,0.00,,,0.00,weatherlink.com 1.10,2013-01-19 17:12:00,
2013-01-19 12:42:00,38.4,26.0,30.06,South,184,15.0,32.0,61,0.00,,,0.00,weatherlink.com 1.10,2013-01-19 17:42:00,
2013-01-19 12:58:00,38.9,26.0,30.05,SW,227,17.0,33.0,60,0.00,,,0.00,weatherlink.com 1.10,2013-01-19 17:58:00,
2013-01-19 13:13:00,39.4,26.0,30.05,East,98,17.0,34.0,60,0.00,,,0.00,weatherlink.com 1.10,2013-01-19 18:13:00,
2013-01-19 13:43:00,41.0,26.0,30.03,SE,135,15.0,34.0,56,0.00,,,0.00,weatherlink.com 1.10,2013-01-19 18:43:00,
2013-01-19 13:58:00,41.5,26.0,30.03,East,98,9.0,31.0,55,0.00,,,0.00,weatherlink.com 1.10,2013-01-19 18:58:00,
2013-01-19 14:28:00,42.9,26.0,30.01,North,7,15.0,35.0,52,0.00,,,0.00,weatherlink.com 1.10,2013-01-19 19:28:00,
2013-01-19 14:43:00,42.9,26.0,30.01,NNE,18,22.0,34.0,52,0.00,,,0.00,weatherlink.com 1.10,2013-01-19 19:43:00,
2013-01-19 14:58:00,43.3,27.0,30.01,South,174,18.0,31.0,52,0.00,,,0.00,weatherlink.com 1.10,2013-01-19 19:58:00,
2013-01-19 15:13:00,43.6,26.0,30.01,ENE,57,15.0,33.0,51,0.00,,,0.00,weatherlink.com 1.10,2013-01-19 20:13:00,
2013-01-19 15:43:00,44.5,26.0,30.00,SSW,200,23.0,38.0,48,0.00,,,0.00,weatherlink.com 1.10,2013-01-19 20:43:00,
2013-01-19 15:58:00,44.3,27.0,30.00,East,100,12.0,26.0,50,0.00,,,0.00,weatherlink.com 1.10,2013-01-19 20:58:00,
2013-01-19 16:13:00,44.2,26.0,30.00,SSE,162,13.0,30.0,50,0.00,,,0.00,weatherlink.com 1.10,2013-01-19 21:13:00,
2013-01-19 16:28:00,44.1,27.0,30.00,SE,139,15.0,25.0,51,0.00,,,0.00,weatherlink.com 1.10,2013-01-19 21:28:00,
2013-01-19 16:58:00,43.3,27.0,30.00,South,175,17.0,21.0,52,0.00,,,0.00,weatherlink.com 1.10,2013-01-19 21:58:00,
2013-01-19 17:28:00,42.6,26.0,29.99,WSW,253,4.0,21.0,53,0.00,,,0.00,weatherlink.com 1.10,2013-01-19 22:28:00,
2013-01-19 17:43:00,41.7,27.0,29.99,SSE,155,9.0,19.0,57,0.00,,,0.00,weatherlink.com 1.10,2013-01-19 22:43:00,
2013-01-19 17:58:00,41.2,28.0,30.00,NNW,342,4.0,6.0,59,0.00,,,0.00,weatherlink.com 1.10,2013-01-19 22:58:00,
2013-01-19 18:13:00,40.6,28.0,30.00,South,173,7.0,11.0,60,0.00,,,0.00,weatherlink.com 1.10,2013-01-19 23:13:00,
2013-01-19 18:43:00,39.5,29.0,29.99,SSE,167,12.0,15.0,66,0.00,,,0.00,weatherlink.com 1.10,2013-01-19 23:43:00,
2013-01-19 18:58:00,39.1,29.0,29.98,South,174,11.0,18.0,66,0.00,,,0.00,weatherlink.com 1.10,2013-01-19 23:58:00,
2013-01-19 19:13:00,39.7,29.0,29.99,South,181,12.0,17.0,66,0.00,,,0.00,weatherlink.com 1.10,2013-01-20 00:13:00,
2013-01-19 19:28:00,39.8,28.0,29.98,South,187,17.0,19.0,62,0.00,,,0.00,weatherlink.com 1.10,2013-01-20 00:28:00,
2013-01-19 19:43:00,40.9,27.0,29.98,South,169,18.0,20.0,57,0.00,,,0.00,weatherlink.com 1.10,2013-01-20 00:43:00,
2013-01-19 20:13:00,40.3,26.0,29.97,South,179,15.0,17.0,58,0.00,,,0.00,weatherlink.com 1.10,2013-01-20 01:13:00,
2013-01-19 20:29:00,39.5,27.0,29.97,SE,138,3.0,12.0,62,0.00,,,0.00,weatherlink.com 1.10,2013-01-20 01:29:00,
2013-01-19 20:44:00,39.3,27.0,29.96,WSW,258,4.0,10.0,62,0.00,,,0.00,weatherlink.com 1.10,2013-01-20 01:44:00,
2013-01-19 20:59:00,39.3,27.0,29.95,South,172,9.0,12.0,62,0.00,,,0.00,weatherlink.com 1.10,2013-01-20 01:59:00,
2013-01-19 21:14:00,41.2,27.0,29.94,South,173,12.0,17.0,57,0.00,,,0.00,weatherlink.com 1.10,2013-01-20 02:14:00,
2013-01-19 21:29:00,41.3,26.0,29.93,SE,145,12.0,17.0,56,0.00,,,0.00,weatherlink.com 1.10,2013-01-20 02:29:00,
2013-01-19 21:44:00,38.7,28.0,29.92,SSE,156,4.0,15.0,65,0.00,,,0.00,weatherlink.com 1.10,2013-01-20 02:44:00,
2013-01-19 21:59:00,37.1,27.0,29.92,SSW,212,4.0,13.0,68,0.00,,,0.00,weatherlink.com 1.10,2013-01-20 02:59:00,
2013-01-19 22:14:00,37.6,27.0,29.91,SSW,194,12.0,15.0,66,0.00,,,0.00,weatherlink.com 1.10,2013-01-20 03:14:00,
2013-01-19 22:44:00,38.5,28.0,29.89,South,172,14.0,17.0,66,0.00,,,0.00,weatherlink.com 1.10,2013-01-20 03:44:00,
2013-01-19 22:59:00,38.0,28.0,29.89,South,175,16.0,20.0,68,0.00,,,0.00,weatherlink.com 1.10,2013-01-20 03:59:00,
2013-01-19 23:14:00,38.1,29.0,29.87,South,186,24.0,27.0,69,0.00,,,0.00,weatherlink.com 1.10,2013-01-20 04:14:00,
2013-01-19 23:29:00,38.3,29.0,29.86,SSW,194,20.0,27.0,69,0.00,,,0.00,weatherlink.com 1.10,2013-01-20 04:29:00,